N805AB KLAL-

Flight info

Callsign N805AB
Flight time N/A
Altitude VFR
Route
Aircraft P38/M-VGD/C

Departure

Time 2026-04-22 00:17
Airport Lakeland Linder International Airport (KLAL)

Arrival

Time N/A
Airport -
Time Latitude Longitude Altitude Speed Heading
2026-04-22 00:07 27.98730 -82.02253 141 ft 16 kts 268°
2026-04-22 00:07 27.98772 -82.02300 140 ft 9 kts
2026-04-22 00:07 27.98823 -82.02329 140 ft 8 kts 274°
2026-04-22 00:08 27.98817 -82.02455 140 ft 26 kts 271°
2026-04-22 00:08 27.98815 -82.02676 138 ft 28 kts 271°
2026-04-22 00:08 27.98816 -82.02818 137 ft 16 kts 271°
2026-04-22 00:08 27.98815 -82.03005 139 ft 22 kts 271°
2026-04-22 00:09 27.98814 -82.03131 140 ft 18 kts 270°
2026-04-22 00:09 27.98813 -82.03257 140 ft 9 kts 269°
2026-04-22 00:09 27.98816 -82.03321 140 ft 0 kts 287°
2026-04-22 00:13 27.98847 -82.03353 140 ft 7 kts 11°
2026-04-22 00:13 27.98849 -82.03353 140 ft 0 kts 12°
2026-04-22 00:15 27.98927 -82.03328 140 ft 9 kts 86°
2026-04-22 00:15 27.98926 -82.03323 140 ft 0 kts 93°
2026-04-22 00:16 27.98924 -82.03181 139 ft 64 kts 90°
2026-04-22 00:16 27.98930 -82.02356 177 ft 134 kts 91°
2026-04-22 00:16 27.98931 -82.01131 332 ft 177 kts 91°
2026-04-22 00:17 27.98927 -81.99688 594 ft 183 kts 91°
2026-04-22 00:17 27.98894 -81.98237 707 ft 186 kts 91°
2026-04-22 00:17 27.98863 -81.96755 821 ft 190 kts 90°
2026-04-22 00:17 27.98876 -81.95242 1005 ft 191 kts 89°
2026-04-22 00:18 27.99010 -81.93775 1261 ft 184 kts 85°
2026-04-22 00:18 27.99101 -81.92361 1568 ft 179 kts 89°
2026-04-22 00:18 27.99122 -81.90945 1743 ft 182 kts 83°
2026-04-22 00:18 27.99571 -81.89615 2013 ft 188 kts 60°
2026-04-22 00:19 28.00348 -81.88385 2279 ft 197 kts 58°
2026-04-22 00:19 28.01095 -81.87006 2254 ft 214 kts 66°
2026-04-22 00:19 28.01754 -81.85496 2291 ft 221 kts 55°
2026-04-22 00:19 28.02745 -81.84199 2647 ft 216 kts 53°
2026-04-22 00:20 28.03660 -81.82862 2952 ft 214 kts 58°
2026-04-22 00:20 28.04518 -81.81482 3291 ft 214 kts 57°
2026-04-22 00:20 28.05406 -81.80128 3650 ft 214 kts 56°
2026-04-22 00:20 28.06314 -81.78788 3977 ft 215 kts 54°
2026-04-22 00:21 28.07283 -81.77495 4360 ft 216 kts 50°
2026-04-22 00:21 28.08334 -81.76286 4739 ft 216 kts 47°
2026-04-22 00:21 28.09410 -81.75091 5094 ft 218 kts 46°
2026-04-22 00:21 28.10530 -81.73918 5431 ft 220 kts 45°
2026-04-22 00:22 28.11683 -81.72744 5574 ft 230 kts 43°
2026-04-22 00:22 28.12912 -81.71522 5558 ft 239 kts 42°
2026-04-22 00:22 28.14166 -81.70329 5703 ft 237 kts 41°
2026-04-22 00:22 28.15446 -81.69153 5868 ft 238 kts 40°
2026-04-22 00:23 28.16714 -81.67941 5828 ft 238 kts 40°
2026-04-22 00:23 28.17959 -81.66738 5697 ft 232 kts 44°
2026-04-22 00:23 28.18954 -81.65318 5579 ft 228 kts 54°
2026-04-22 00:23 28.20017 -81.64041 5171 ft 223 kts 43°
2026-04-22 00:24 28.21321 -81.63029 4484 ft 229 kts 33°
2026-04-22 00:24 28.22720 -81.62183 3902 ft 228 kts 30°
2026-04-22 00:24 28.24129 -81.61436 3595 ft 219 kts 25°
2026-04-22 00:24 28.25666 -81.60992 3513 ft 231 kts 16°
2026-04-22 00:25 28.27221 -81.60566 3489 ft 231 kts 20°
2026-04-22 00:25 28.28734 -81.60067 3553 ft 227 kts 21°
2026-04-22 00:25 28.30236 -81.59508 3515 ft 229 kts 23°
2026-04-22 00:25 28.31754 -81.58888 3354 ft 232 kts 27°
2026-04-22 00:26 28.33164 -81.57994 3208 ft 232 kts 37°
2026-04-22 00:26 28.34261 -81.56758 2775 ft 227 kts 69°
2026-04-22 00:26 28.34820 -81.55080 2559 ft 222 kts 71°
2026-04-22 00:26 28.35377 -81.53488 2645 ft 209 kts 69°
2026-04-22 00:27 28.35849 -81.52004 2863 ft 199 kts 81°
2026-04-22 00:27 28.35806 -81.50451 2936 ft 198 kts 101°
2026-04-22 00:27 28.35271 -81.49018 2663 ft 198 kts 121°
2026-04-22 00:27 28.34335 -81.47909 2134 ft 190 kts 134°
2026-04-22 00:28 28.33407 -81.46972 1387 ft 168 kts 134°
2026-04-22 00:28 28.32539 -81.46198 829 ft 141 kts 142°
2026-04-22 00:28 28.31826 -81.45740 525 ft 103 kts 143°
2026-04-22 00:28 28.31228 -81.45283 473 ft 110 kts 144°
2026-04-22 00:29 28.30557 -81.44827 353 ft 114 kts 141°
2026-04-22 00:29 28.29897 -81.44357 182 ft 110 kts 142°
2026-04-22 00:29 28.29352 -81.43970 85 ft 72 kts 160°
2026-04-22 00:29 28.29018 -81.43741 88 ft 41 kts 149°
2026-04-22 00:30 28.28971 -81.43665 90 ft 8 kts 41°
2026-04-22 00:30 28.29000 -81.43629 88 ft 1 kts 57°
2026-04-22 00:30 28.29000 -81.43628 88 ft 0 kts 57°
2026-04-22 00:31 28.29022 -81.43618 88 ft 14 kts 340°
2026-04-22 00:31 28.29078 -81.43658 87 ft 15 kts 327°
2026-04-22 00:31 28.29192 -81.43738 87 ft 22 kts 329°
2026-04-22 00:32 28.29334 -81.43836 83 ft 24 kts 328°
2026-04-22 00:32 28.29460 -81.43925 83 ft 23 kts 330°
2026-04-22 00:32 28.29579 -81.43991 84 ft 17 kts 15°
2026-04-22 00:32 28.29600 -81.43982 84 ft 0 kts 21°